This is the latest recevied weather packets stored in our database for station/object KE8GJZ-2. If no packets are shown the sender has not sent any weather packets the latest 1 day(s).
| Time | Temp. | Humidity | Pressure | Rain* | Wind** | Luminosity | Snow |
|---|---|---|---|---|---|---|---|
| 1778050857 | 6.11° C | 75% | 1010.8 hPa | 0 mm | - | 0 W/m² | - |
| 1778050555 | 6.11° C | 75% | 1010.9 hPa | 0 mm | - | 0 W/m² | - |
| 1778050251 | 6.11° C | 75% | 1011 hPa | 0 mm | - | 0 W/m² | - |
| 1778049948 | 6.11° C | 74% | 1011 hPa | 0 mm | - | 0 W/m² | - |
| 1778049342 | 6.67° C | 74% | 1010.6 hPa | 0 mm | - | 0 W/m² | - |
| 1778049039 | 6.67° C | 72% | 1010.9 hPa | 0 mm | - | 0 W/m² | - |
| 1778048737 | 6.67° C | 73% | 1010.9 hPa | 0 mm | - | 0 W/m² | - |
| 1778048434 | 6.67° C | 72% | 1010.7 hPa | 0 mm | - | 0 W/m² | - |
| 1778047526 | 7.22° C | 73% | 1010.8 hPa | 0 mm | - | 0 W/m² | - |
| 1778046920 | 7.22° C | 72% | 1010.8 hPa | 0 mm | - | 0 W/m² | - |
| 1778046009 | 7.78° C | 72% | 1011 hPa | 0 mm | - | 0 W/m² | - |
| 1778045104 | 7.78° C | 75% | 1011 hPa | 0 mm | - | 0 W/m² | - |
| 1778044801 | 7.78° C | 74% | 1010.6 hPa | 0 mm | - | 0 W/m² | - |
| 1778043893 | 7.78° C | 75% | 1010.8 hPa | 0 mm | - | 0 W/m² | - |
| 1778043286 | 7.78° C | 76% | 1010.9 hPa | 0 mm | - | 0 W/m² | - |
| 1778042681 | 7.22° C | 78% | 1010.3 hPa | 0 mm | - | 0 W/m² | - |
| 1778042377 | 7.22° C | 77% | 1010.3 hPa | 0 mm | - | 0 W/m² | - |
| 1778041772 | 7.22° C | 76% | 1010.4 hPa | 0 mm | - | 0 W/m² | - |
| 1778041472 | 7.78° C | 76% | 1010 hPa | 0 mm | - | 0 W/m² | - |
| 1778041169 | 7.22° C | 75% | 1009.8 hPa | 0 mm | - | 0 W/m² | - |
| 1778040867 | 7.78° C | 76% | 1009.9 hPa | 0 mm | - | 0 W/m² | - |
| 1778040564 | 7.78° C | 75% | 1009.8 hPa | 0 mm | - | 0 W/m² | - |
| 1778039957 | 7.78° C | 74% | 1010 hPa | 0 mm | - | 0 W/m² | - |
| 1778039655 | 7.78° C | 75% | 1010 hPa | 0 mm | - | 0 W/m² | - |
| 1778039049 | 7.78° C | 74% | 1009.9 hPa | 0 mm | - | 0 W/m² | - |
* Rain latest hour (hover to see other rain measurements)
** Current wind speed in m/s (hover to see current wind gust speed)